Williamtown, Australia

10:18 AM AEST on April 30, 2017 (GMT +1000)
Williamtown Military

Weather History for YWLM - August, 2014

Change the Weather History Date:

Sunday, August 17, 2014

  Actual Average Record
Temperature  
Mean Temperature 60 °F -  
Max Temperature 68 °F - - ()
Min Temperature 51 °F - - ()
Degree Days  
Heating Degree Days 4    
Growing Degree Days 10 (Base 50)    
Moisture  
Dew Point 48 °F    
Average Humidity 69    
Maximum Humidity 100    
Minimum Humidity 21    
Precipitation  
Precipitation 0.00 in - - ()
Sea Level Pressure  
Sea Level Pressure 29.78 in    
Wind  
Wind Speed 8 mph ()    
Max Wind Speed 22 mph    
Max Gust Speed -    
Visibility 6.1 miles    
Events Rain    
T = Trace of Precipitation, MM = Missing Value Source: Averaged Metar Reports

Daily Weather History Graph

Daily Weather History Graph

Search for Another Location

Airport or City:

Trip Planner

Search our weather history database for the weather conditions in past years. The results will help you decide how hot, cold, wet, or windy it might be!

Date:

Astronomy

Aug. 17, 2014 Rise Set
Actual Time 6:28 AM AEST 5:25 PM AEST
Civil Twilight 6:03 AM AEST 5:50 PM AEST
Nautical Twilight 5:34 AM AEST 6:19 PM AEST
Astronomical Twilight 5:05 AM AEST 6:48 PM AEST
Moon No Moon Rise 10:35 AM AEST (8/17)
Length of Visible Light 11h 47m
Length of Day
10h 57m
Waning Gibbous, 55% of the Moon is Illuminated
Aug 17
Waning Gibbous
Aug 17
Last Quarter
Aug 26
New
Sep 2
First Quarter
Sep 9
Full

Hourly Weather History & Observations

Time (AEST) Temp. Dew Point Humidity Pressure Visibility Wind Dir Wind Speed Gust Speed Precip Events Conditions
12:00 AM 56 °F 55 °F 95% 29.98 in - ESE 6.9 mph - -   Overcast
12:00 AM 55.4 °F 55.4 °F 100% 29.98 in 6.2 mi ESE 6.9 mph - N/A Rain Rain
12:30 AM 57.2 °F 55.4 °F 94% 29.95 in 6.2 mi ESE 6.9 mph - N/A Rain Light Rain
1:00 AM 57 °F 55 °F 92% 29.95 in - East 4.6 mph - -  
1:00 AM 57.2 °F 55.4 °F 94% 29.95 in 6.2 mi East 4.6 mph - N/A Rain Light Rain
1:30 AM 57.2 °F 55.4 °F 94% 29.92 in 6.2 mi NE 4.6 mph - N/A Rain Light Rain
2:00 AM 55.4 °F 55.4 °F 100% 29.92 in 5.0 mi Calm Calm - N/A Rain Rain
3:00 AM 56 °F 55 °F 97% 29.89 in - SSE 4.6 mph - -   Overcast
3:00 AM 55.4 °F 55.4 °F 100% 29.89 in 6.2 mi SSE 4.6 mph - N/A Rain Rain
3:30 AM 57.2 °F 55.4 °F 94% 29.86 in 6.2 mi East 3.5 mph - N/A Rain Light Rain Showers
4:00 AM 57 °F 55 °F 92% 29.87 in - ENE 5.8 mph - -  
4:00 AM 57.2 °F 55.4 °F 94% 29.86 in 6.2 mi ENE 5.8 mph - N/A Rain Light Rain Showers
5:00 AM 57.2 °F 55.4 °F 94% 29.83 in 6.2 mi ENE 5.8 mph - N/A Rain Light Rain Showers
5:30 AM 57.2 °F 55.4 °F 94% 29.83 in 6.2 mi ENE 5.8 mph - N/A Rain Light Rain Showers
6:00 AM 56 °F 55 °F 95% 29.85 in - East 5.8 mph - -   Overcast
6:00 AM 57.2 °F 55.4 °F 94% 29.83 in 6.2 mi East 5.8 mph - N/A Rain Light Rain
6:30 AM 57.2 °F 55.4 °F 94% 29.83 in 5.6 mi East 5.8 mph - N/A Rain Rain
7:00 AM 56 °F 55 °F 97% 29.85 in - East 5.8 mph - -  
7:00 AM 57.2 °F 55.4 °F 94% 29.83 in 3.7 mi East 5.8 mph - N/A Rain Heavy Rain
7:30 AM 57.2 °F 55.4 °F 94% 29.83 in 3.1 mi Calm Calm - N/A Rain Rain
7:44 AM 57.2 °F 55.4 °F 94% 29.83 in 2.2 mi Calm Calm - N/A Rain Heavy Rain
7:56 AM 57.2 °F 55.4 °F 94% 29.83 in 2.8 mi Calm Calm - N/A Rain Rain
8:00 AM 57.2 °F 55.4 °F 94% 29.83 in 3.1 mi Calm Calm - N/A Rain Rain
8:30 AM 57.2 °F 55.4 °F 94% 29.83 in 3.7 mi North 5.8 mph - N/A Rain Light Rain
8:49 AM 57.2 °F 57.2 °F 100% 29.83 in 5.0 mi North 5.8 mph - N/A   Drizzle
9:00 AM 57 °F 56 °F 97% 29.83 in 12 mi NNW 5.8 mph - - Rain Light Rain
9:00 AM 57.2 °F 57.2 °F 100% 29.83 in 6.2 mi NNW 5.8 mph - N/A Rain Light Rain
9:30 AM 57.2 °F 55.4 °F 94% 29.80 in 6.2 mi NNW 5.8 mph - N/A   Mostly Cloudy
10:00 AM 60 °F 57 °F 87% 29.81 in - West 8.1 mph - -  
10:00 AM 60.8 °F 57.2 °F 88% 29.80 in 6.2 mi West 8.1 mph - N/A   Mostly Cloudy
10:27 AM 62.6 °F 53.6 °F 72% 29.80 in 6.2 mi WNW 17.3 mph - N/A   Mostly Cloudy
10:30 AM 60.8 °F 53.6 °F 77% 29.80 in 6.2 mi WNW 17.3 mph - N/A   Mostly Cloudy
11:00 AM 64.4 °F 51.8 °F 64% 29.77 in 6.2 mi West 16.1 mph - N/A   Scattered Clouds
11:30 AM 64.4 °F 48.2 °F 56% 29.74 in 6.2 mi WNW 19.6 mph - N/A   Scattered Clouds
12:00 PM 65 °F 45 °F 37% 29.75 in 19 mi WNW 21.9 mph - -   Partly Cloudy
12:00 PM 66.2 °F 44.6 °F 46% 29.74 in 6.2 mi WNW 21.9 mph - N/A   Scattered Clouds
12:30 PM 66.2 °F 44.6 °F 46% 29.71 in 6.2 mi WNW 18.4 mph - N/A   Scattered Clouds
1:00 PM 67 °F 41 °F 27% 29.71 in - WNW 20.7 mph - -  
1:00 PM 66.2 °F 41.0 °F 40% 29.71 in 6.2 mi WNW 20.7 mph - N/A   Unknown
1:30 PM 68.0 °F 39.2 °F 35% 29.68 in 6.2 mi WNW 19.6 mph - N/A   Unknown
2:00 PM 68.0 °F 39.2 °F 35% 29.68 in 6.2 mi WNW 18.4 mph - N/A   Partly Cloudy
2:30 PM 66.2 °F 37.4 °F 35% 29.68 in 6.2 mi WNW 21.9 mph - N/A   Partly Cloudy
3:00 PM 67 °F 37 °F 21% 29.68 in 22 mi WNW 19.6 mph - -   Partly Cloudy
3:00 PM 66.2 °F 37.4 °F 35% 29.68 in 6.2 mi WNW 19.6 mph - N/A   Partly Cloudy
4:00 PM 66 °F 38 °F 24% 29.68 in - WNW 19.6 mph - -  
4:00 PM 66.2 °F 37.4 °F 35% 29.68 in 6.2 mi WNW 19.6 mph - N/A   Unknown
4:30 PM 64.4 °F 39.2 °F 40% 29.68 in 6.2 mi WNW 17.3 mph - N/A   Unknown
5:00 PM 62.6 °F 39.2 °F 42% 29.68 in 6.2 mi WNW 13.8 mph - N/A   Unknown
5:30 PM 59.0 °F 41.0 °F 51% 29.68 in 6.2 mi WNW 10.4 mph - N/A   Unknown
6:00 PM 59 °F 40 °F 37% 29.70 in - WNW 9.2 mph - -  
6:00 PM 59.0 °F 39.2 °F 48% 29.68 in 6.2 mi WNW 9.2 mph - N/A   Unknown
6:30 PM 57.2 °F 41.0 °F 55% 29.68 in 6.2 mi WNW 9.2 mph - N/A   Unknown
7:00 PM 57 °F 40 °F 41% 29.70 in - WNW 10.4 mph - -  
7:00 PM 57.2 °F 39.2 °F 51% 29.68 in 6.2 mi WNW 10.4 mph - N/A   Unknown
7:30 PM 57.2 °F 39.2 °F 51% 29.68 in 6.2 mi WNW 13.8 mph - N/A   Unknown
8:00 PM 55.4 °F 39.2 °F 54% 29.71 in 6.2 mi WNW 10.4 mph - N/A   Unknown
8:30 PM 53.6 °F 39.2 °F 58% 29.68 in 6.2 mi WNW 11.5 mph - N/A   Unknown
9:00 PM 54 °F 40 °F 48% 29.72 in - WNW 11.5 mph - -  
9:00 PM 53.6 °F 41.0 °F 62% 29.71 in 6.2 mi WNW 11.5 mph - N/A   Unknown
9:30 PM 55.4 °F 39.2 °F 54% 29.68 in 6.2 mi WNW 13.8 mph - N/A   Unknown
10:00 PM 54 °F 39 °F 47% 29.70 in - WNW 17.3 mph - -  
10:00 PM 55.4 °F 39.2 °F 54% 29.68 in 6.2 mi WNW 17.3 mph - N/A   Unknown
10:30 PM 53.6 °F 39.2 °F 58% 29.68 in 6.2 mi WNW 13.8 mph - N/A   Unknown
11:00 PM 53.6 °F 41.0 °F 62% 29.68 in 6.2 mi WNW 13.8 mph - N/A   Unknown
11:30 PM 51.8 °F 41.0 °F 67% 29.68 in 6.2 mi WNW 12.7 mph - N/A   Unknown